Regional Weather Roundup
Issued by NWS

Home | Current Version | Previous Version | Graphics & Text | Print | Product List | Glossary On
Versions: 1 2 3 4 5 6 7 8 9 10 11 12 13 14 15 16 17 18 19 20 21 22 23 24 25 26 27 28 29 30 31 32 33 34 35 36 37 38 39 40 41 42 43 44 45 46 47 48 49 50
000
ASUS43 KMPX 292210
RWRMN
WEATHER ROUNDUP FOR MINNESOTA
NATIONAL WEATHER SERVICE TWIN CITIES/CHANHASSEN MN
400 PM CST THU JAN 29 2015


NOTE: "FAIR" INDICATES FEW OR NO CLOUDS BELOW 12,000 FEET WITH NO
SIGNIFICANT WEATHER AND/OR OBSTRUCTIONS TO VISIBILITY. N/A MEANS
CURRENT SKY AND/OR WEATHER CONDITIONS ARE NOT AVAILABLE.

MNZ060>063-068>070-292300-
   Twin Cities Metro

CITY           SKY/WX    TMP DP  RH WIND       PRES   REMARKS
TWIN CITIES    PTSUNNY   27  15  61 NW17G30   30.32R WCI  14
ST PAUL        PTSUNNY   28  15  58 NW16G30   30.33R WCI  16
CRYSTAL        PTSUNNY   28  14  55 NW20      30.31R WCI  15
BLAINE         PTSUNNY   28  18  64 NW17G25   30.31R WCI  16
LAKEVILLE      PTSUNNY   25  18  74 NW17      30.32R WCI  11
EDEN PRAIRIE   PTSUNNY   27  15  61 NW13G23   30.32R WCI  16
SOUTH ST PAUL  MOSUNNY   28  16  59 NW13G24   30.32R WCI  18
LAKE ELMO      PTSUNNY   30  18  59 NW15      30.31R WCI  19
$$
MNZ001>005-007-008-013>017-022>024-027-028-292300-
   Northwest Minnesota

CITY           SKY/WX    TMP DP  RH WIND       PRES   REMARKS
BEMIDJI        CLEAR     12   5  73 NW16      30.40R WCI  -5
HALLOCK        MOSUNNY    7   0  72 NW14      30.55R WCI -10
ROSEAU         CLOUDY     9   1  72 NW13      30.48R WCI  -7
WARROAD        PTCLDY     9   0  66 NW13      30.47R WCI  -7
THIEF RVR FALL PTSUNNY    9   1  72 NW16      30.49R WCI  -9
CROOKSTON      MOSUNNY   10   3  72 N18       30.55R WCI  -8
FOSSTON        CLOUDY     9   3  78 NW12      30.47R WCI  -6
DETROIT LAKES  FLURRIES  14   9  79 NW18      30.46R WCI  -3
MOORHEAD       PTSUNNY   18  10  73 N17G23    30.53R WCI   2
PARK RAPIDS    MOSUNNY   16   7  67 NW15      30.39R WCI   1
MAHNOMEN       MOCLDY    11   5  74 NW16G25   30.47R WCI  -5
$$
MNZ006-009>011-018-025>026-292300-
   North Central Minnesota

CITY           SKY/WX    TMP DP  RH WIND       PRES   REMARKS
BAUDETTE       PTCLDY     7  -1  70 NW16      30.42R WCI -11
FLAG ISLAND    PTCLDY     7   0  72 NW15      30.44R WCI -11
INTL FALLS     CLOUDY    10   1  67 NW16G22   30.37R WCI  -7
WASKISH        PTCLDY    12   3  67 NW7G17    30.42R WCI   2
BIG FORK       CLEAR     12   1  62 NW6       30.36R WCI   3
LONGVILLE      CLEAR     16   5  62 NW8G17    30.37R WCI   5
GRAND RAPIDS   CLEAR     12   3  67 NW15G25   30.32R WCI  -4
CRANE LAKE     CLOUDY    12   5  73 NW8       30.35R WCI   1
ORR            CLOUDY    10   1  67 NW10      30.30R WCI  -3
COOK           CLOUDY    10   3  72 NW10G17   30.32R WCI  -3
WALKER         FAIR      14   4  65 NW8       30.38R WCI   2
$$
MNZ012-019>021-037-292300-
   Northeast Minnesota

CITY           SKY/WX    TMP DP  RH WIND       PRES   REMARKS
DULUTH         MOCLDY    16   6  65 NW14G25   30.25R WCI   2
ELY            MOCLDY    12   3  67 NW9G22    30.25R WCI   0
HIBBING        MOCLDY    13   2  61 NW18      30.31R WCI  -4
EVELETH        PTCLDY    12   5  73 NW12      30.31R WCI  -2
DULUTH HARBOR  MOCLDY    19  10  68 NW16      30.33R WCI   5
TWO HARBORS    LGT SNOW  19  10  68 NW9G18    30.25R WCI   9
SILVER BAY     MOCLDY    19   9  63 NW7G18    30.23R WCI  10
GRAND MARAIS     N/A     18   6  59 NW9       30.24R WCI   7
G MARAIS ARPRT CLOUDY    10   1  67 NW12G23   30.14R WCI  -4
$$
MNZ029>031-032-039>041-046>048-054>057-064-292300-
   West Central Minnesota

CITY           SKY/WX    TMP DP  RH WIND       PRES   REMARKS
FERGUS FALLS   PTSUNNY   16   7  67 N18G28    30.51R WCI  -1
WHEATON        CLOUDY    18  10  73 NW17      30.51R WCI   2
MORRIS         FLURRIES  18  10  73 NW23G29   30.45R WCI   0
ALEXANDRIA     PTSUNNY   17   7  64 NW17      30.42R WCI   1
ELBOW LAKE     FLURRIES  15   9  76 N21       30.45R WCI  -3
WADENA         MOSUNNY   16   9  73 NW14G21   30.41R WCI   1
GLENWOOD       SUNNY     18  10  73 NW18      30.41R WCI   2
APPLETON       PTSUNNY   21  12  68 NW20G26   30.48R WCI   6
BENSON         MOSUNNY   19  10  68 N23G30    30.45R WCI   2
ORTONVILLE     FLURRIES  21  14  73 N17       30.48R WCI   7
MADISON        FLURRIES  27  19  74 N16       30.47R WCI  14
WILLMAR        FAIR      21  12  68 NW22G29   30.43R WCI   5
$$
MNZ033>034-036-042>043-049>051-058-059-292300-
   Central Minnesota

CITY           SKY/WX    TMP DP  RH WIND       PRES   REMARKS
ST CLOUD       FAIR      24  12  60 NW16G24   30.35R WCI  11
SAUK CENTRE    FAIR      19   9  66 NW20      30.39R WCI   3
PAYNESVILLE    SUNNY     19  11  71 W17G23    30.39R WCI   4
AITKIN         MOCLDY    18   7  62 NW12G20   30.35R WCI   5
PINE RIVER     SUNNY     16   7  67 N9        30.40R WCI   4
BRAINERD       SUNNY     18   6  59 N15G26    30.37R WCI   4
STAPLES        MOSUNNY   18   7  62 N15G22    30.39R WCI   3
LONG PRAIRIE   FAIR      19  10  68 NW14G24   30.39R WCI   6
LITTLE FALLS   MOSUNNY   23   9  54 NW14G21   30.37R WCI  11
LITCHFIELD     FAIR      25  16  68 NW15G26   30.38R WCI  12
BUFFALO        MOSUNNY   26  14  61 NW12G20   30.36R WCI  15
MAPLE LAKE     SUNNY     26  16  65 NW13G18   30.36R WCI  15
$$
MNZ037-044-045-052-053-292300-
   East Central Minnesota

CITY           SKY/WX    TMP DP  RH WIND       PRES   REMARKS
PRINCETON      MOSUNNY   25  12  58 NW15      30.33R WCI  12
MORA           MOSUNNY   21   9  58 NW18G25   30.34R WCI   6
CAMBRIDGE      MOSUNNY   27  12  54 NW12G22   30.31R WCI  16
RUSH CITY      CLOUDY    24  13  62 NW13G23   30.32R WCI  13
MOOSE LAKE     CLOUDY    19  10  68 N10G20    30.30R WCI   8
HINCKLEY       CLOUDY    23  12  63 NW15G26   30.32R WCI  10
CLOQUET        CLOUDY    16   7  67 NW14G21   30.29R WCI   1
MCGREGOR       CLOUDY    18  10  73 NW10G18   30.34R WCI   6
$$
MNZ071>073-080-081-089-090-097-098-292300-
   Southwest Minnesota

CITY           SKY/WX    TMP DP  RH WIND       PRES   REMARKS
MONTEVIDEO     PTSUNNY   21  16  79 N18G29    30.46R WCI   6
GRANITE FALLS  PTSUNNY   22  15  74 NW20G25   30.47R WCI   8
CANBY          CLOUDY    25  19  78 N16G23    30.47R WCI  12
MARSHALL       CLOUDY    25  14  63 N20G30    30.45R WCI  11
REDWOOD FALLS  PTSUNNY   23  14  68 NW18G36   30.42R WCI   9
OLIVIA         MOSUNNY   21  14  73 NW20G29   30.41R WCI   6
PIPESTONE      CLOUDY    27  21  80 N18G29    30.41R WCI  13
WINDOM         CLOUDY    25  19  80 NW25G32   30.39R WCI   9
WORTHINGTON    CLOUDY    27  19  74 NW21      30.40S WCI  13
JACKSON        CLOUDY    28  21  74 NW29G36   30.39R WCI  13
TRACY          CLOUDY    25  21  82 N17G26    30.42R WCI  12
SLAYTON        CLOUDY    25  20  82 NW18G24   30.41R WCI  11
$$
MNZ065>067-074>077-082>085-091>093-292300-
   South Central Minnesota

CITY           SKY/WX    TMP DP  RH WIND       PRES   REMARKS
MANKATO        CLOUDY    27  16  63 NW20G30   30.35R WCI  13
NEW ULM        CLOUDY    25  16  68 NW22G29   30.39R WCI  10
ST JAMES       CLOUDY    27  18  69 NW25G31     N/A  WCI  11
FAIRMONT       CLOUDY    27  16  63 NW24G39   30.36R WCI  12
GLENCOE        MOSUNNY   27  19  72 NW17G24   30.35S WCI  15
FARIBAULT      CLOUDY    27  19  74 NW16      30.33R WCI  14
OWATONNA       CLOUDY    25  18  74 NW28      30.31R WCI   8
WASECA         CLOUDY    27  19  74 NW24      30.35R WCI  12
ALBERT LEA     CLOUDY    27  19  74 NW15G23   30.31R WCI  15
$$
MNZ078>079-086>088-094>096-292300-
   Southeast Minnesota

CITY           SKY/WX    TMP DP  RH WIND       PRES   REMARKS
ROCHESTER      CLOUDY    27  20  75 NW23G31   30.25R WCI  12
RED WING       CLOUDY    28  16  59 NW12G23   30.28R WCI  18
STANTON        CLOUDY    28  19  69 NW21G28   30.30R WCI  15
DODGE CENTER   CLOUDY    27  21  80 NW21G26   30.26R WCI  13
WINONA         CLOUDY    32  23  69 NW23G29   30.24R WCI  19
AUSTIN         CLOUDY    28  21  74 NW23G32   30.29R WCI  14
PRESTON        CLOUDY    28  21  74 NW18G25   30.24R WCI  16
$$
ABBREVIATIONS USED IN REMARKS
   TC - TEMPERATURES IN CELSIUS
  WCI - WIND CHILL INDEX
   HX - HEAT INDEX
  VSB - VISIBILITY
$$


USA.gov is the U.S. government's official web portal to all federal, state and local government web resources and services.